Regional Weather Roundup
Issued by NWS

Home | Current Version | Previous Version | Text Only | Print | Product List | Glossary Off
Versions: 1 2 3 4 5 6 7 8 9 10 11 12 13 14 15 16 17 18 19 20 21 22 23 24 25 26 27 28 29 30 31 32 33 34 35 36 37 38 39 40 41 42 43 44 45 46 47 48 49 50

000
ASUS43 KBIS 010410
RWRND

NORTH DAKOTA REGIONAL WEATHER ROUNDUP
NATIONAL WEATHER SERVICE BISMARCK ND
1100 PM CDT SAT APR 30 2016

NOTE: "FAIR" INDICATES FEW OR NO CLOUDS BELOW 12,000 FEET WITH NO
SIGNIFICANT WEATHER AND/OR OBSTRUCTIONS TO VISIBILITY.


NDZ001>003-009>011-017-010500-
NORTHWEST NORTH DAKOTA

CITY           SKY/WX    TMP DP  RH WIND       PRES   REMARKS
WILLISTON      CLEAR     40  31  70 N6        30.30R
MINOT          CLEAR     46  26  45 N5        30.29R
MINOT AFB      CLEAR     46  29  51 NE7       30.29R
$$

NDZ018>021-031>035-040>046-010500-
SOUTHWEST NORTH DAKOTA

CITY           SKY/WX    TMP DP  RH WIND       PRES   REMARKS
BISMARCK       CLEAR     48  31  51 NE8       30.26R
DICKINSON      CLEAR     43  26  51 NE6       30.27R
GARRISON         N/A     42  30  62 N7        30.28R
HETTINGER ARPT CLEAR     39  27  62 NE8       30.27R
$$

NDZ004>008-012>016-024-026-027-054-010500-
NORTHEAST NORTH DAKOTA

CITY           SKY/WX    TMP DP  RH WIND       PRES   REMARKS
GRAND FORKS    PTCLDY    50  28  42 NE12      30.25S
GRND FRKS AFB  CLEAR     46  27  46 E9        30.25S
DEVILS LAKE    CLEAR     45  30  55 E7        30.28R
$$

NDZ022-023-025-028>030-036>039-047>053-010500-
SOUTHEAST NORTH DAKOTA

CITY           SKY/WX    TMP DP  RH WIND       PRES   REMARKS
FARGO          CLOUDY    51  27  39 NE14      30.20R
JAMESTOWN      CLEAR     44  28  53 NE9       30.22R
$$




USA.gov is the U.S. government's official web portal to all federal, state and local government web resources and services.